Location: Narragansett
(41.4496°N, 71.4488°W)
Time: 16:48:01
(UTC+00:00)

Nauka - Pass Details

Date: 22 September 2021
Orbit: 417 x 423 km, 51.6° (Epoch: 26 October)

Event Time Altitude Azimuth Distance (km) Brightness Sun altitude
Rises 00:16:23 0° 277° (W) 2,360 ? -17.9°
Reaches altitude 10° 00:18:53 10° 296° (WNW) 1,499 ? -18.3°
Maximum altitude 00:21:24 19° 344° (NNW) 1,062 ? -18.8°
Enters shadow 00:23:20 13° 25° (NNE) 1,338 ? -19.1°
